Weather History for Fort Myers Airport, FL

Change the Weather History Date:

Thursday, January 24, 2013

  Actual Average Record
Temperature  
Mean Temperature 62 °F -  
Max Temperature 75 °F 74 °F 85 °F (1962)
Min Temperature 50 °F 53 °F 32 °F (1960)
Degree Days  
Heating Degree Days 2    
Growing Degree Days 12 (Base 50)    
Moisture  
Dew Point 43 °F    
Average Humidity 56    
Maximum Humidity 83    
Minimum Humidity 21    
Precipitation  
Precipitation 0.00 in - - ()
Sea Level Pressure  
Sea Level Pressure 30.27 in    
Wind  
Wind Speed 4 mph (NNE)    
Max Wind Speed 8 mph    
Max Gust Speed -    
Visibility 10 miles    
Events      
Averages and records for this station are not official NWS values.
T = Trace of Precipitation, MM = Missing Value Source: NWS Daily Summary

Daily Weather History Graph

Daily Weather History Graph

Search for Another Location

Airport:

Trip Planner

Search our weather history database for the weather conditions in past years. The results will help you decide how hot, cold, wet, or windy it might be!

Date:

Astronomy

Jan. 24, 2013 Rise Set
Actual Time 7:14 AM EST 6:03 PM EST
Civil Twilight 6:50 AM EST 6:28 PM EST
Nautical Twilight 6:22 AM EST 6:56 PM EST
Astronomical Twilight 5:54 AM EST 7:23 PM EST
Moon 4:07 PM EST 5:08 AM EST
Length of Visible Light 11h 37m
Length of Day
10h 48m
Waxing Gibbous, 94% of the Moon is Illuminated
Jan 24
Waxing Gibbous
Jan 26
Full
Feb 3
Last Quarter
Feb 10
New
Feb 17
First Quarter

Hourly Weather History & Observations

Time (EST) Temp. Dew Point Humidity Pressure Visibility Wind Dir Wind Speed Gust Speed Precip Events Conditions
12:53 AM 53.1 °F 44.1 °F 71% 30.28 in 10.0 mi Calm Calm - N/A   Clear
1:53 AM 52.0 °F 46.0 °F 80% 30.27 in 10.0 mi NE 5.8 mph - N/A   Clear
2:53 AM 51.1 °F 46.0 °F 83% 30.28 in 10.0 mi NE 4.6 mph - N/A   Clear
3:53 AM 50.0 °F 45.0 °F 83% 30.25 in 10.0 mi Calm Calm - N/A   Clear
4:53 AM 50.0 °F 45.0 °F 83% 30.25 in 10.0 mi NE 4.6 mph - N/A   Clear
5:53 AM 50.0 °F 44.1 °F 80% 30.26 in 10.0 mi NE 5.8 mph - N/A   Clear
6:53 AM 50.0 °F 44.1 °F 80% 30.29 in 10.0 mi NE 3.5 mph - N/A   Clear
7:53 AM 50.0 °F 45.0 °F 83% 30.29 in 10.0 mi Calm Calm - N/A   Clear
8:53 AM 57.9 °F 46.0 °F 65% 30.31 in 10.0 mi East 3.5 mph - N/A   Clear
9:53 AM 64.0 °F 39.0 °F 40% 30.32 in 10.0 mi ENE 5.8 mph - N/A   Clear
10:53 AM 69.1 °F 39.0 °F 33% 30.32 in 10.0 mi NE 5.8 mph - N/A   Clear
11:53 AM 72.0 °F 43.0 °F 35% 30.30 in 10.0 mi NNE 6.9 mph - N/A   Clear
12:53 PM 72.0 °F 41.0 °F 33% 30.27 in 10.0 mi North 6.9 mph - N/A   Clear
1:53 PM 73.9 °F 30.9 °F 21% 30.24 in 10.0 mi NNE 8.1 mph - N/A   Clear
2:53 PM 75.0 °F 33.1 °F 22% 30.22 in 10.0 mi Calm Calm - N/A   Clear
3:53 PM 75.0 °F 33.1 °F 22% 30.22 in 10.0 mi North 8.1 mph - N/A   Clear
4:53 PM 73.9 °F 36.0 °F 25% 30.23 in 10.0 mi North 5.8 mph - N/A   Clear
5:53 PM 71.1 °F 39.0 °F 31% 30.24 in 10.0 mi NE 3.5 mph - N/A   Clear
6:53 PM 64.9 °F 46.0 °F 50% 30.25 in 10.0 mi NW 5.8 mph - N/A   Clear
7:53 PM 63.0 °F 48.9 °F 60% 30.26 in 10.0 mi NNW 3.5 mph - N/A   Clear
8:53 PM 60.1 °F 48.9 °F 67% 30.27 in 10.0 mi Calm Calm - N/A   Clear
9:53 PM 57.9 °F 48.9 °F 72% 30.28 in 10.0 mi North 3.5 mph - N/A   Clear
10:53 PM 57.9 °F 46.0 °F 65% 30.29 in 10.0 mi North 4.6 mph - N/A   Clear
11:53 PM 57.0 °F 46.0 °F 67% 30.28 in 10.0 mi North 3.5 mph - N/A   Clear